| time (UTC) | temp F | wind direction | speed MPH | gust MPH | rain 1hr in | rain 24hr in | rain mn in | humidity % | barometer mb |
| 20260508063059 | 50 | 0 | 0.0 | 0.0 | 0.00 | 0.18 | 0.00 | 87 | 1017.4 |
| 20260508062552 | 50 | 0 | 0.0 | 0.0 | 0.00 | 0.18 | 0.00 | 87 | 1017.6 |
| 20260508062052 | 51 | 0 | 0.0 | 0.0 | 0.00 | 0.18 | 0.00 | 86 | 1017.4 |
| 20260508061605 | 51 | 0 | 0.0 | 0.0 | 0.00 | 0.18 | 0.00 | 87 | 1017.5 |
| 20260508061055 | 51 | 0 | 0.0 | 0.0 | 0.00 | 0.18 | 0.00 | 86 | 1017.5 |
| 20260508060552 | 51 | 0 | 0.0 | 0.0 | 0.00 | 0.18 | 0.00 | 86 | 1017.7 |
| 20260508060056 | 51 | 0 | 0.0 | 0.0 | 0.00 | 0.18 | 0.00 | 86 | 1017.4 |
| 20260508055556 | 51 | 0 | 0.0 | 0.0 | 0.00 | 0.18 | 0.00 | 87 | 1017.5 |
| 20260508055052 | 51 | 0 | 0.0 | 0.0 | 0.00 | 0.18 | 0.00 | 86 | 1017.6 |
| 20260508054553 | 51 | 0 | 0.0 | 0.0 | 0.00 | 0.18 | 0.00 | 86 | 1017.6 |
| 20260508054056 | 51 | 0 | 0.0 | 0.0 | 0.00 | 0.18 | 0.00 | 86 | 1017.6 |
| 20260508053552 | 52 | 0 | 0.0 | 0.0 | 0.00 | 0.18 | 0.00 | 86 | 1017.6 |
| 20260508053103 | 52 | 0 | 0.0 | 0.0 | 0.00 | 0.18 | 0.00 | 85 | 1017.6 |
| 20260508052553 | 52 | 0 | 0.0 | 0.0 | 0.00 | 0.18 | 0.00 | 85 | 1017.5 |
| 20260508052054 | 52 | 0 | 0.0 | 0.0 | 0.00 | 0.18 | 0.00 | 85 | 1017.6 |
| 20260508051558 | 52 | 0 | 0.0 | 0.0 | 0.00 | 0.18 | 0.00 | 85 | 1017.4 |
| 20260508051052 | 52 | 0 | 0.0 | 0.0 | 0.00 | 0.18 | 0.00 | 84 | 1017.4 |
| 20260508050553 | 52 | 0 | 0.0 | 0.0 | 0.00 | 0.18 | 0.00 | 84 | 1017.3 |
| 20260508045552 | 52 | 0 | 0.0 | 0.0 | 0.00 | 0.20 | 0.00 | 85 | 1017.3 |
| 20260508045052 | 53 | 0 | 0.0 | 0.0 | 0.00 | 0.20 | 0.00 | 84 | 1017.3 |
| 20260508044552 | 53 | 0 | 0.0 | 0.0 | 0.00 | 0.20 | 0.00 | 84 | 1017.5 |
| 20260508044051 | 53 | 0 | 0.0 | 0.0 | 0.00 | 0.20 | 0.00 | 83 | 1017.2 |
| 20260508043551 | 53 | 0 | 0.0 | 0.0 | 0.00 | 0.20 | 0.00 | 83 | 1017.3 |
| 20260508043102 | 53 | 0 | 0.0 | 0.0 | 0.00 | 0.20 | 0.00 | 83 | 1017.3 |
| 20260508042549 | 54 | 0 | 0.0 | 0.0 | 0.00 | 0.20 | 0.00 | 83 | 1017.3 |
| 20260508042048 | 54 | 0 | 0.0 | 0.0 | 0.00 | 0.20 | 0.00 | 84 | 1017.2 |
| 20260508041555 | 54 | 0 | 0.0 | 0.0 | 0.00 | 0.20 | 0.00 | 82 | 1017.3 |
| 20260508041055 | 54 | 0 | 0.0 | 0.0 | 0.00 | 0.20 | 0.00 | 82 | 1017.2 |
| 20260508040552 | 55 | 0 | 0.0 | 0.0 | 0.00 | 0.20 | 0.00 | 82 | 1017.2 |
| 20260508040052 | 55 | 0 | 0.0 | 0.0 | 0.00 | 0.20 | 0.00 | 82 | 1017.2 |
| 20260508035552 | 55 | 0 | 0.0 | 0.0 | 0.00 | 0.23 | 0.20 | 82 | 1017.0 |
| 20260508035052 | 55 | 0 | 0.0 | 0.0 | 0.00 | 0.23 | 0.20 | 82 | 1017.0 |
| 20260508034559 | 55 | 0 | 0.0 | 0.0 | 0.00 | 0.23 | 0.20 | 82 | 1017.1 |
| 20260508034052 | 56 | 0 | 0.0 | 0.0 | 0.00 | 0.23 | 0.20 | 81 | 1017.0 |
| 20260508033552 | 56 | 0 | 0.0 | 0.0 | 0.00 | 0.23 | 0.20 | 81 | 1017.0 |
| 20260508033057 | 56 | 0 | 0.0 | 0.0 | 0.00 | 0.23 | 0.20 | 80 | 1017.1 |
| 20260508032552 | 56 | 0 | 0.0 | 0.0 | 0.00 | 0.23 | 0.20 | 80 | 1016.9 |
| 20260508032052 | 56 | 0 | 0.0 | 0.0 | 0.00 | 0.23 | 0.20 | 79 | 1017.0 |
| 20260508031555 | 56 | 0 | 0.0 | 0.0 | 0.00 | 0.23 | 0.20 | 79 | 1016.9 |
| 20260508031054 | 57 | 0 | 0.0 | 0.0 | 0.00 | 0.23 | 0.20 | 79 | 1016.8 |
| 20260508030552 | 57 | 0 | 0.0 | 0.0 | 0.00 | 0.23 | 0.20 | 78 | 1016.9 |
| 20260508030100 | 57 | 0 | 0.0 | 1.0 | 0.00 | 0.23 | 0.20 | 79 | 1016.7 |
| 20260508025548 | 57 | 0 | 0.0 | 1.0 | 0.00 | 0.29 | 0.20 | 76 | 1016.5 |
| 20260508025052 | 57 | 0 | 0.0 | 2.0 | 0.00 | 0.29 | 0.20 | 74 | 1016.6 |
| 20260508024558 | 58 | 0 | 0.0 | 3.0 | 0.00 | 0.29 | 0.20 | 74 | 1016.5 |
| 20260508024053 | 58 | 0 | 0.0 | 3.0 | 0.00 | 0.29 | 0.20 | 74 | 1016.5 |
| 20260508023553 | 58 | 0 | 0.0 | 2.0 | 0.00 | 0.29 | 0.20 | 74 | 1016.6 |
| 20260508023053 | 58 | 0 | 0.0 | 0.0 | 0.00 | 0.29 | 0.20 | 75 | 1016.4 |
| 20260508022554 | 58 | 0 | 0.0 | 0.0 | 0.00 | 0.29 | 0.20 | 76 | 1016.6 |
| 20260508022052 | 58 | 0 | 0.0 | 0.0 | 0.00 | 0.29 | 0.20 | 74 | 1016.5 |
| 20260508021552 | 58 | 0 | 0.0 | 0.0 | 0.00 | 0.29 | 0.20 | 76 | 1016.6 |
| 20260508021054 | 58 | 0 | 0.0 | 0.0 | 0.00 | 0.29 | 0.20 | 76 | 1016.4 |
| 20260508020555 | 59 | 0 | 0.0 | 0.0 | 0.00 | 0.29 | 0.20 | 77 | 1016.3 |
| 20260508020055 | 59 | 0 | 0.0 | 0.0 | 0.00 | 0.29 | 0.20 | 77 | 1016.2 |
| 20260508015552 | 59 | 0 | 0.0 | 0.0 | 0.00 | 0.29 | 0.20 | 77 | 1016.3 |
| 20260508015049 | 59 | 0 | 0.0 | 0.0 | 0.00 | 0.29 | 0.20 | 75 | 1016.4 |
| 20260508014602 | 59 | 0 | 0.0 | 0.0 | 0.00 | 0.29 | 0.20 | 75 | 1016.2 |
| 20260508014052 | 60 | 0 | 0.0 | 1.0 | 0.00 | 0.29 | 0.20 | 75 | 1016.2 |
| 20260508013551 | 60 | 0 | 0.0 | 1.0 | 0.00 | 0.29 | 0.20 | 75 | 1015.9 |
| 20260508013104 | 60 | 0 | 0.0 | 0.0 | 0.00 | 0.29 | 0.20 | 74 | 1016.1 |
| 20260508012551 | 61 | 0 | 0.0 | 0.0 | 0.00 | 0.29 | 0.20 | 72 | 1015.9 |
| 20260508012051 | 61 | 0 | 0.0 | 0.0 | 0.00 | 0.29 | 0.20 | 70 | 1015.9 |
| 20260508011601 | 61 | 0 | 0.0 | 0.0 | 0.00 | 0.29 | 0.20 | 70 | 1015.7 |
| 20260508011051 | 62 | 0 | 0.0 | 2.0 | 0.00 | 0.29 | 0.20 | 71 | 1015.7 |
| 20260508010548 | 62 | 0 | 0.0 | 2.0 | 0.00 | 0.29 | 0.20 | 69 | 1015.6 |
| 20260508010059 | 63 | 0 | 1.0 | 2.0 | 0.00 | 0.29 | 0.20 | 68 | 1015.5 |
| 20260508005552 | 63 | 360 | 0.0 | 3.0 | 0.00 | 0.30 | 0.20 | 65 | 1015.5 |
| 20260508005053 | 63 | 0 | 0.0 | 3.0 | 0.00 | 0.30 | 0.20 | 63 | 1015.5 |
| 20260508004601 | 63 | 0 | 0.0 | 4.0 | 0.00 | 0.30 | 0.20 | 62 | 1015.3 |
| 20260508004052 | 64 | 360 | 0.0 | 4.0 | 0.00 | 0.30 | 0.20 | 61 | 1015.2 |
| 20260508003551 | 64 | 0 | 0.0 | 4.0 | 0.00 | 0.30 | 0.20 | 60 | 1015.1 |
| 20260508003056 | 64 | 360 | 0.0 | 4.0 | 0.00 | 0.30 | 0.20 | 61 | 1015.0 |
| 20260508002551 | 65 | 360 | 0.0 | 1.0 | 0.00 | 0.30 | 0.20 | 61 | 1015.1 |
| 20260508002051 | 65 | 0 | 0.0 | 4.0 | 0.00 | 0.30 | 0.20 | 61 | 1015.2 |
| 20260508001554 | 65 | 0 | 0.0 | 4.0 | 0.00 | 0.30 | 0.20 | 59 | 1015.0 |
| 20260508001051 | 65 | 360 | 0.0 | 6.0 | 0.00 | 0.30 | 0.20 | 60 | 1015.0 |
| 20260508000552 | 66 | 0 | 1.0 | 6.0 | 0.00 | 0.30 | 0.20 | 59 | 1014.8 |
| 20260508000054 | 66 | 360 | 1.0 | 5.0 | 0.00 | 0.30 | 0.20 | 59 | 1014.8 |
| 20260507235553 | 66 | 0 | 2.0 | 5.0 | 0.00 | 0.58 | 0.20 | 59 | 1014.9 |
| 20260507235054 | 66 | 360 | 2.0 | 5.0 | 0.00 | 0.58 | 0.20 | 59 | 1014.9 |
| 20260507234552 | 66 | 360 | 1.0 | 5.0 | 0.00 | 0.58 | 0.20 | 59 | 1014.7 |
| 20260507234052 | 66 | 360 | 0.0 | 5.0 | 0.00 | 0.58 | 0.20 | 60 | 1014.7 |
| 20260507233552 | 66 | 0 | 2.0 | 6.0 | 0.00 | 0.58 | 0.20 | 60 | 1014.6 |
| 20260507233050 | 66 | 360 | 1.0 | 6.0 | 0.00 | 0.58 | 0.20 | 59 | 1014.6 |
| 20260507232551 | 66 | 360 | 1.0 | 6.0 | 0.00 | 0.58 | 0.20 | 59 | 1014.7 |
| 20260507232048 | 66 | 0 | 1.0 | 6.0 | 0.00 | 0.58 | 0.20 | 57 | 1014.7 |
| 20260507231552 | 66 | 360 | 1.0 | 10.0 | 0.00 | 0.58 | 0.20 | 57 | 1014.8 |
| 20260507231048 | 67 | 0 | 3.0 | 10.0 | 0.00 | 0.58 | 0.20 | 57 | 1014.6 |
| 20260507230549 | 67 | 360 | 3.0 | 9.0 | 0.00 | 0.58 | 0.20 | 58 | 1014.7 |
| 20260507230059 | 67 | 360 | 2.0 | 8.0 | 0.00 | 0.58 | 0.20 | 58 | 1014.6 |
| 20260507225548 | 67 | 360 | 1.0 | 6.0 | 0.00 | 0.69 | 0.20 | 59 | 1014.6 |
| 20260507225052 | 67 | 360 | 1.0 | 5.0 | 0.00 | 0.69 | 0.20 | 60 | 1014.5 |
| 20260507224601 | 67 | 0 | 2.0 | 5.0 | 0.00 | 0.69 | 0.20 | 60 | 1014.5 |
| 20260507224052 | 67 | 360 | 2.0 | 5.0 | 0.00 | 0.69 | 0.20 | 60 | 1014.7 |
| 20260507223552 | 68 | 360 | 1.0 | 5.0 | 0.00 | 0.69 | 0.20 | 60 | 1014.8 |
| 20260507223053 | 68 | 0 | 1.0 | 8.0 | 0.00 | 0.69 | 0.20 | 59 | 1014.6 |
| 20260507222551 | 68 | 360 | 2.0 | 10.0 | 0.00 | 0.69 | 0.20 | 59 | 1014.6 |
| 20260507222052 | 68 | 360 | 3.0 | 10.0 | 0.00 | 0.69 | 0.20 | 58 | 1014.5 |
| 20260507221555 | 68 | 360 | 2.0 | 9.0 | 0.00 | 0.69 | 0.20 | 58 | 1014.5 |
| 20260507221052 | 69 | 360 | 3.0 | 9.0 | 0.00 | 0.69 | 0.20 | 59 | 1014.4 |
| 20260507220548 | 68 | 18 | 2.0 | 8.0 | 0.00 | 0.69 | 0.20 | 59 | 1014.6 |
| 20260507215553 | 68 | 0 | 1.0 | 11.0 | 0.00 | 0.70 | 0.20 | 60 | 1014.6 |
| 20260507215049 | 68 | 360 | 2.0 | 10.0 | 0.00 | 0.70 | 0.20 | 60 | 1014.4 |
| 20260507214554 | 68 | 360 | 2.0 | 6.0 | 0.00 | 0.70 | 0.20 | 61 | 1014.5 |
| 20260507214048 | 68 | 360 | 1.0 | 6.0 | 0.00 | 0.70 | 0.20 | 61 | 1014.4 |
| 20260507213548 | 67 | 360 | 2.0 | 6.0 | 0.00 | 0.70 | 0.20 | 62 | 1014.3 |
| 20260507213106 | 67 | 0 | 1.0 | 5.0 | 0.00 | 0.70 | 0.20 | 62 | 1014.2 |
| 20260507212550 | 67 | 360 | 1.0 | 6.0 | 0.00 | 0.70 | 0.20 | 62 | 1014.2 |
| 20260507212052 | 67 | 0 | 2.0 | 6.0 | 0.00 | 0.70 | 0.20 | 62 | 1014.3 |
| 20260507211557 | 67 | 360 | 0.0 | 9.0 | 0.00 | 0.70 | 0.20 | 64 | 1014.2 |
| 20260507211051 | 67 | 360 | 2.0 | 9.0 | 0.00 | 0.70 | 0.20 | 64 | 1014.3 |
| 20260507210549 | 67 | 360 | 2.0 | 9.0 | 0.00 | 0.70 | 0.20 | 65 | 1014.2 |
| 20260507210057 | 67 | 360 | 0.0 | 4.0 | 0.00 | 0.70 | 0.20 | 66 | 1014.1 |
| 20260507205549 | 67 | 360 | 0.0 | 6.0 | 0.00 | 0.77 | 0.20 | 66 | 1014.2 |
| 20260507205054 | 67 | 360 | 0.0 | 8.0 | 0.00 | 0.77 | 0.20 | 66 | 1014.1 |
| 20260507204603 | 67 | 360 | 2.0 | 8.0 | 0.00 | 0.77 | 0.20 | 66 | 1014.2 |
| 20260507204052 | 67 | 360 | 2.0 | 8.0 | 0.00 | 0.77 | 0.20 | 66 | 1014.1 |
| 20260507203551 | 67 | 360 | 1.0 | 6.0 | 0.00 | 0.77 | 0.20 | 67 | 1014.0 |
| 20260507203056 | 67 | 360 | 1.0 | 6.0 | 0.00 | 0.77 | 0.20 | 67 | 1013.9 |
| 20260507202552 | 67 | 360 | 2.0 | 6.0 | 0.00 | 0.77 | 0.20 | 68 | 1014.2 |
| 20260507202048 | 67 | 360 | 2.0 | 4.0 | 0.00 | 0.77 | 0.20 | 67 | 1014.1 |
| 20260507201605 | 67 | 360 | 0.0 | 6.0 | 0.00 | 0.77 | 0.20 | 68 | 1014.1 |
| 20260507201051 | 67 | 0 | 0.0 | 6.0 | 0.00 | 0.77 | 0.20 | 67 | 1013.9 |
| 20260507200548 | 67 | 360 | 1.0 | 6.0 | 0.00 | 0.77 | 0.20 | 68 | 1014.0 |
| 20260507200056 | 67 | 0 | 1.0 | 5.0 | 0.00 | 0.77 | 0.20 | 68 | 1014.0 |
| 20260507195551 | 67 | 0 | 0.0 | 6.0 | 0.00 | 0.81 | 0.20 | 68 | 1014.0 |
| 20260507195051 | 67 | 360 | 1.0 | 6.0 | 0.00 | 0.81 | 0.20 | 68 | 1014.0 |
| 20260507194609 | 67 | 360 | 2.0 | 5.0 | 0.00 | 0.81 | 0.20 | 68 | 1014.1 |
| 20260507194052 | 67 | 360 | 0.0 | 6.0 | 0.00 | 0.81 | 0.20 | 68 | 1014.2 |
| 20260507193551 | 67 | 360 | 1.0 | 6.0 | 0.00 | 0.81 | 0.20 | 68 | 1014.2 |
| 20260507193055 | 67 | 360 | 1.0 | 5.0 | 0.00 | 0.81 | 0.20 | 68 | 1014.3 |
| 20260507192548 | 67 | 0 | 1.0 | 8.0 | 0.00 | 0.81 | 0.20 | 69 | 1014.3 |
| 20260507192048 | 67 | 0 | 0.0 | 8.0 | 0.00 | 0.81 | 0.20 | 68 | 1014.4 |
| 20260507191610 | 67 | 0 | 1.0 | 8.0 | 0.00 | 0.81 | 0.20 | 68 | 1014.4 |
| 20260507191050 | 66 | 360 | 1.0 | 6.0 | 0.00 | 0.81 | 0.20 | 68 | 1014.4 |
| 20260507190548 | 66 | 360 | 1.0 | 6.0 | 0.00 | 0.81 | 0.20 | 68 | 1014.5 |
| 20260507190053 | 66 | 360 | 2.0 | 5.0 | 0.00 | 0.81 | 0.20 | 69 | 1014.5 |
| 20260507185548 | 65 | 360 | 1.0 | 5.0 | 0.00 | 1.08 | 0.20 | 69 | 1014.6 |
| 20260507185052 | 65 | 360 | 0.0 | 6.0 | 0.00 | 1.08 | 0.20 | 68 | 1014.6 |
| 20260507184558 | 65 | 0 | 2.0 | 6.0 | 0.00 | 1.08 | 0.20 | 68 | 1014.6 |
| 20260507184049 | 65 | 360 | 1.0 | 8.0 | 0.00 | 1.08 | 0.20 | 68 | 1014.7 |
| 20260507183550 | 65 | 360 | 3.0 | 8.0 | 0.00 | 1.08 | 0.20 | 67 | 1014.7 |
| 20260507183053 | 66 | 360 | 2.0 | 6.0 | 0.00 | 1.08 | 0.20 | 68 | 1014.7 |
| 20260507182552 | 66 | 360 | 0.0 | 5.0 | 0.00 | 1.08 | 0.20 | 69 | 1014.7 |
| 20260507182052 | 65 | 360 | 3.0 | 8.0 | 0.00 | 1.08 | 0.20 | 67 | 1014.8 |
| 20260507181555 | 65 | 360 | 3.0 | 8.0 | 0.00 | 1.08 | 0.20 | 68 | 1014.9 |
| 20260507181053 | 65 | 0 | 2.0 | 6.0 | 0.00 | 1.08 | 0.20 | 66 | 1014.9 |
| 20260507180549 | 65 | 360 | 3.0 | 8.0 | 0.00 | 1.08 | 0.20 | 68 | 1014.9 |
| 20260507180056 | 65 | 360 | 2.0 | 8.0 | 0.00 | 1.08 | 0.20 | 68 | 1014.8 |
| 20260507175551 | 65 | 360 | 2.0 | 6.0 | 0.00 | 1.08 | 0.20 | 69 | 1015.0 |
| 20260507175048 | 65 | 360 | 3.0 | 6.0 | 0.00 | 1.08 | 0.20 | 71 | 1015.0 |
| 20260507174552 | 64 | 360 | 1.0 | 6.0 | 0.00 | 1.08 | 0.20 | 70 | 1015.0 |
| 20260507174052 | 64 | 360 | 1.0 | 9.0 | 0.00 | 1.08 | 0.20 | 71 | 1015.1 |
| 20260507173551 | 64 | 0 | 2.0 | 9.0 | 0.00 | 1.08 | 0.20 | 72 | 1015.3 |
| 20260507173058 | 64 | 360 | 3.0 | 9.0 | 0.00 | 1.08 | 0.20 | 71 | 1015.4 |
| 20260507172550 | 64 | 360 | 2.0 | 9.0 | 0.00 | 1.08 | 0.20 | 71 | 1015.4 |
| 20260507172052 | 64 | 360 | 2.0 | 9.0 | 0.00 | 1.08 | 0.20 | 73 | 1015.5 |
| 20260507171554 | 64 | 360 | 2.0 | 11.0 | 0.00 | 1.08 | 0.20 | 72 | 1015.4 |
| 20260507171052 | 63 | 360 | 4.0 | 11.0 | 0.00 | 1.08 | 0.20 | 72 | 1015.5 |
| 20260507170552 | 63 | 360 | 3.0 | 9.0 | 0.00 | 1.08 | 0.20 | 74 | 1015.5 |
| 20260507170059 | 63 | 360 | 2.0 | 8.0 | 0.00 | 1.08 | 0.20 | 75 | 1015.5 |
| 20260507165551 | 63 | 0 | 3.0 | 9.0 | 0.00 | 1.08 | 0.20 | 76 | 1015.5 |
| 20260507165051 | 62 | 360 | 2.0 | 9.0 | 0.00 | 1.08 | 0.20 | 75 | 1015.5 |
| 20260507164612 | 62 | 360 | 2.0 | 9.0 | 0.00 | 1.08 | 0.20 | 79 | 1015.4 |
| 20260507164051 | 61 | 360 | 1.0 | 9.0 | 0.00 | 1.08 | 0.20 | 79 | 1015.5 |
| 20260507163552 | 61 | 360 | 2.0 | 9.0 | 0.00 | 1.08 | 0.20 | 79 | 1015.4 |
| 20260507163052 | 60 | 360 | 3.0 | 8.0 | 0.00 | 1.08 | 0.20 | 80 | 1015.5 |
| 20260507162551 | 60 | 360 | 1.0 | 6.0 | 0.00 | 1.08 | 0.20 | 82 | 1015.4 |
| 20260507162049 | 59 | 360 | 2.0 | 6.0 | 0.00 | 1.08 | 0.20 | 80 | 1015.3 |
| 20260507161608 | 59 | 360 | 2.0 | 6.0 | 0.00 | 1.08 | 0.20 | 81 | 1015.5 |
| 20260507161051 | 59 | 360 | 3.0 | 6.0 | 0.00 | 1.08 | 0.20 | 82 | 1015.5 |
| 20260507160552 | 58 | 360 | 1.0 | 6.0 | 0.00 | 1.08 | 0.20 | 83 | 1015.6 |
| 20260507160053 | 58 | 360 | 0.0 | 4.0 | 0.00 | 1.08 | 0.20 | 84 | 1015.5 |
| 20260507155550 | 58 | 0 | 0.0 | 6.0 | 0.00 | 1.08 | 0.20 | 84 | 1015.5 |
| 20260507155052 | 57 | 360 | 1.0 | 6.0 | 0.00 | 1.08 | 0.20 | 84 | 1015.5 |
| 20260507154553 | 57 | 360 | 3.0 | 9.0 | 0.00 | 1.08 | 0.20 | 84 | 1015.6 |
| 20260507154050 | 57 | 360 | 2.0 | 9.0 | 0.00 | 1.08 | 0.20 | 85 | 1015.6 |
| 20260507153553 | 57 | 360 | 3.0 | 9.0 | 0.00 | 1.08 | 0.20 | 85 | 1015.5 |
| 20260507153052 | 57 | 360 | 4.0 | 9.0 | 0.00 | 1.08 | 0.20 | 85 | 1015.5 |
| 20260507152551 | 57 | 360 | 1.0 | 8.0 | 0.00 | 1.08 | 0.20 | 87 | 1015.5 |
| 20260507152051 | 57 | 360 | 2.0 | 10.0 | 0.00 | 1.08 | 0.20 | 86 | 1015.4 |
| 20260507151552 | 56 | 360 | 2.0 | 10.0 | 0.00 | 1.08 | 0.20 | 86 | 1015.2 |
| 20260507151051 | 56 | 360 | 3.0 | 9.0 | 0.00 | 1.08 | 0.20 | 87 | 1015.2 |
| 20260507150551 | 56 | 360 | 3.0 | 9.0 | 0.00 | 1.08 | 0.20 | 87 | 1015.1 |
| 20260507150057 | 56 | 360 | 2.0 | 9.0 | 0.00 | 1.08 | 0.20 | 87 | 1015.2 |
| 20260507145550 | 56 | 360 | 3.0 | 11.0 | 0.00 | 1.49 | 0.20 | 87 | 1015.3 |
| 20260507145054 | 56 | 360 | 2.0 | 11.0 | 0.00 | 1.49 | 0.20 | 87 | 1015.2 |
| 20260507144603 | 57 | 360 | 4.0 | 11.0 | 0.00 | 1.49 | 0.20 | 88 | 1015.2 |
| 20260507144051 | 57 | 360 | 4.0 | 8.0 | 0.00 | 1.49 | 0.20 | 89 | 1015.1 |
| 20260507143549 | 56 | 0 | 2.0 | 8.0 | 0.00 | 1.49 | 0.20 | 90 | 1015.2 |
| 20260507143108 | 56 | 360 | 2.0 | 9.0 | 0.00 | 1.49 | 0.20 | 91 | 1015.1 |
| 20260507142551 | 56 | 0 | 2.0 | 9.0 | 0.00 | 1.49 | 0.20 | 91 | 1015.0 |
| 20260507142050 | 56 | 360 | 2.0 | 9.0 | 0.00 | 1.49 | 0.20 | 91 | 1014.9 |
| 20260507141618 | 56 | 0 | 3.0 | 10.0 | 0.00 | 1.49 | 0.20 | 92 | 1015.0 |
| 20260507141053 | 56 | 0 | 3.0 | 10.0 | 0.00 | 1.49 | 0.20 | 92 | 1015.0 |
| 20260507140548 | 56 | 360 | 2.0 | 8.0 | 0.00 | 1.49 | 0.20 | 92 | 1014.9 |
| 20260507140057 | 56 | 0 | 1.0 | 8.0 | 0.00 | 1.49 | 0.20 | 92 | 1014.9 |
| 20260507135552 | 56 | 360 | 2.0 | 8.0 | 0.00 | 1.57 | 0.20 | 92 | 1015.0 |
| 20260507135052 | 56 | 360 | 2.0 | 5.0 | 0.00 | 1.57 | 0.20 | 93 | 1015.0 |
| 20260507134555 | 56 | 0 | 0.0 | 6.0 | 0.00 | 1.57 | 0.20 | 93 | 1014.8 |
| 20260507134051 | 56 | 360 | 0.0 | 6.0 | 0.00 | 1.57 | 0.20 | 93 | 1014.7 |
| 20260507133551 | 56 | 360 | 1.0 | 6.0 | 0.00 | 1.57 | 0.20 | 93 | 1014.7 |
| 20260507133109 | 56 | 360 | 1.0 | 3.0 | 0.00 | 1.57 | 0.20 | 93 | 1014.6 |
| 20260507132548 | 56 | 360 | 0.0 | 6.0 | 0.00 | 1.57 | 0.20 | 93 | 1014.8 |
| 20260507132049 | 56 | 360 | 1.0 | 9.0 | 0.00 | 1.57 | 0.20 | 93 | 1014.5 |
| 20260507131605 | 56 | 360 | 3.0 | 9.0 | 0.00 | 1.57 | 0.20 | 93 | 1014.4 |
| 20260507131049 | 56 | 360 | 1.0 | 8.0 | 0.00 | 1.57 | 0.20 | 94 | 1014.2 |
| 20260507130552 | 56 | 0 | 2.0 | 8.0 | 0.00 | 1.57 | 0.20 | 93 | 1014.4 |
| 20260507130056 | 56 | 0 | 0.0 | 6.0 | 0.00 | 1.57 | 0.20 | 93 | 1014.2 |
| 20260507125552 | 55 | 360 | 2.0 | 9.0 | 0.00 | 1.57 | 0.20 | 93 | 1014.0 |
| 20260507125049 | 55 | 360 | 4.0 | 9.0 | 0.00 | 1.57 | 0.20 | 93 | 1013.9 |
| 20260507124556 | 55 | 360 | 2.0 | 9.0 | 0.00 | 1.57 | 0.20 | 93 | 1013.9 |
| 20260507124048 | 55 | 360 | 1.0 | 9.0 | 0.00 | 1.57 | 0.20 | 93 | 1014.0 |
| 20260507123548 | 55 | 360 | 1.0 | 9.0 | 0.00 | 1.57 | 0.20 | 94 | 1014.0 |
| 20260507123110 | 55 | 360 | 2.0 | 9.0 | 0.00 | 1.57 | 0.20 | 94 | 1013.7 |
| 20260507122548 | 56 | 360 | 1.0 | 8.0 | 0.00 | 1.57 | 0.20 | 94 | 1013.7 |
| 20260507122049 | 56 | 360 | 2.0 | 8.0 | 0.00 | 1.57 | 0.20 | 94 | 1013.8 |
| 20260507121557 | 56 | 360 | 3.0 | 8.0 | 0.00 | 1.57 | 0.20 | 94 | 1013.8 |
| 20260507121052 | 56 | 360 | 2.0 | 8.0 | 0.00 | 1.57 | 0.20 | 94 | 1013.8 |
| 20260507120548 | 56 | 360 | 2.0 | 8.0 | 0.00 | 1.57 | 0.20 | 94 | 1013.8 |
| 20260507120055 | 56 | 360 | 0.0 | 8.0 | 0.00 | 1.57 | 0.20 | 94 | 1013.8 |
| 20260507115548 | 56 | 360 | 2.0 | 8.0 | 0.00 | 1.57 | 0.20 | 94 | 1013.4 |
| 20260507115053 | 56 | 360 | 1.0 | 6.0 | 0.00 | 1.57 | 0.20 | 94 | 1013.4 |
| 20260507114556 | 56 | 0 | 0.0 | 5.0 | 0.00 | 1.57 | 0.20 | 94 | 1013.8 |
| 20260507114054 | 56 | 0 | 1.0 | 5.0 | 0.00 | 1.57 | 0.20 | 94 | 1013.9 |
| 20260507113550 | 56 | 0 | 0.0 | 5.0 | 0.00 | 1.57 | 0.20 | 94 | 1013.8 |
| 20260507113051 | 56 | 0 | 0.0 | 4.0 | 0.00 | 1.57 | 0.20 | 94 | 1013.7 |
| 20260507112548 | 56 | 0 | 0.0 | 4.0 | 0.00 | 1.57 | 0.20 | 95 | 1013.3 |
| 20260507112050 | 57 | 360 | 0.0 | 4.0 | 0.00 | 1.57 | 0.20 | 95 | 1013.1 |
| 20260507111550 | 57 | 0 | 0.0 | 5.0 | 0.00 | 1.57 | 0.20 | 95 | 1013.0 |
| 20260507111051 | 57 | 360 | 2.0 | 6.0 | 0.00 | 1.57 | 0.20 | 95 | 1013.0 |
| 20260507110551 | 57 | 360 | 1.0 | 6.0 | 0.01 | 1.57 | 0.20 | 95 | 1012.9 |
| 20260507110057 | 57 | 360 | 2.0 | 5.0 | 0.01 | 1.57 | 0.20 | 95 | 1013.1 |
| 20260507105549 | 57 | 360 | 1.0 | 5.0 | 0.01 | 1.57 | 0.20 | 95 | 1012.9 |
| 20260507105051 | 57 | 360 | 1.0 | 4.0 | 0.01 | 1.57 | 0.20 | 95 | 1012.3 |
| 20260507104559 | 57 | 360 | 0.0 | 6.0 | 0.01 | 1.57 | 0.20 | 94 | 1013.2 |
| 20260507104052 | 57 | 360 | 3.0 | 8.0 | 0.01 | 1.57 | 0.20 | 95 | 1012.8 |
| 20260507103553 | 57 | 360 | 1.0 | 8.0 | 0.02 | 1.57 | 0.20 | 95 | 1012.7 |
| 20260507103054 | 58 | 360 | 2.0 | 8.0 | 0.03 | 1.57 | 0.20 | 95 | 1012.4 |
| 20260507102553 | 58 | 360 | 2.0 | 4.0 | 0.04 | 1.57 | 0.20 | 95 | 1012.5 |
| 20260507102056 | 58 | 360 | 1.0 | 4.0 | 0.06 | 1.57 | 0.20 | 95 | 1012.4 |
| 20260507101553 | 58 | 0 | 0.0 | 3.0 | 0.08 | 1.57 | 0.20 | 95 | 1012.5 |
| 20260507101056 | 58 | 0 | 0.0 | 3.0 | 0.10 | 1.57 | 0.20 | 95 | 1012.7 |
| 20260507100552 | 58 | 0 | 1.0 | 3.0 | 0.09 | 1.56 | 0.19 | 95 | 1012.6 |
| 20260507100059 | 58 | 360 | 1.0 | 5.0 | 0.10 | 1.56 | 0.19 | 95 | 1012.6 |
| 20260507095553 | 58 | 0 | 1.0 | 5.0 | 0.10 | 1.56 | 0.19 | 95 | 1012.6 |
| 20260507095053 | 58 | 360 | 0.0 | 3.0 | 0.11 | 1.56 | 0.19 | 95 | 1012.6 |
| 20260507094554 | 58 | 0 | 0.0 | 4.0 | 0.11 | 1.56 | 0.19 | 95 | 1012.9 |
| 20260507094052 | 58 | 0 | 1.0 | 4.0 | 0.14 | 1.56 | 0.19 | 95 | 1012.8 |
| 20260507093553 | 59 | 0 | 1.0 | 4.0 | 0.16 | 1.55 | 0.18 | 95 | 1012.6 |
| 20260507093054 | 59 | 0 | 1.0 | 3.0 | 0.15 | 1.54 | 0.17 | 95 | 1013.1 |
| 20260507092553 | 59 | 0 | 0.0 | 4.0 | 0.14 | 1.53 | 0.16 | 95 | 1012.9 |
| 20260507092053 | 59 | 0 | 0.0 | 4.0 | 0.12 | 1.51 | 0.14 | 95 | 1013.1 |
| 20260507091554 | 59 | 360 | 0.0 | 4.0 | 0.10 | 1.49 | 0.12 | 95 | 1013.3 |
| 20260507091056 | 59 | 0 | 0.0 | 8.0 | 0.08 | 1.47 | 0.10 | 95 | 1013.4 |
| 20260507090553 | 59 | 0 | 1.0 | 8.0 | 0.08 | 1.47 | 0.10 | 95 | 1012.8 |
| 20260507085553 | 59 | 360 | 0.0 | 9.0 | 0.07 | 1.46 | 0.09 | 95 | 1011.9 |
| 20260507085054 | 59 | 360 | 2.0 | 9.0 | 0.06 | 1.45 | 0.08 | 95 | 1012.2 |
| 20260507084555 | 59 | 360 | 0.0 | 6.0 | 0.06 | 1.45 | 0.08 | 95 | 1012.2 |
| 20260507084052 | 60 | 360 | 2.0 | 6.0 | 0.03 | 1.42 | 0.05 | 94 | 1012.3 |
| 20260507083556 | 60 | 360 | 0.0 | 6.0 | 0.00 | 1.39 | 0.02 | 94 | 1013.5 |
| 20260507083055 | 61 | 360 | 2.0 | 6.0 | 0.00 | 1.39 | 0.02 | 94 | 1013.1 |
| 20260507082553 | 61 | 0 | 2.0 | 8.0 | 0.00 | 1.39 | 0.02 | 94 | 1012.7 |
| 20260507082053 | 62 | 360 | 2.0 | 8.0 | 0.00 | 1.39 | 0.02 | 95 | 1012.6 |
| 20260507081556 | 62 | 360 | 0.0 | 2.0 | 0.00 | 1.39 | 0.02 | 96 | 1012.6 |
| 20260507081057 | 62 | 0 | 0.0 | 0.0 | 0.00 | 1.39 | 0.02 | 96 | 1012.4 |
| 20260507080553 | 62 | 0 | 0.0 | 0.0 | 0.00 | 1.39 | 0.02 | 96 | 1012.4 |
| 20260507080107 | 62 | 0 | 0.0 | 0.0 | 0.00 | 1.39 | 0.02 | 96 | 1012.6 |
| 20260507075553 | 62 | 0 | 0.0 | 0.0 | 0.00 | 1.39 | 0.02 | 96 | 1012.8 |
| 20260507075053 | 62 | 0 | 0.0 | 0.0 | 0.00 | 1.39 | 0.02 | 96 | 1012.7 |
| 20260507074551 | 62 | 0 | 0.0 | 0.0 | 0.00 | 1.39 | 0.02 | 96 | 1012.4 |
| 20260507074052 | 62 | 0 | 0.0 | 0.0 | 0.00 | 1.39 | 0.02 | 96 | 1012.4 |
| 20260507073556 | 62 | 0 | 0.0 | 0.0 | 0.00 | 1.39 | 0.02 | 96 | 1012.4 |
| 20260507073054 | 62 | 0 | 0.0 | 0.0 | 0.00 | 1.39 | 0.02 | 96 | 1012.4 |
| 20260507072555 | 62 | 0 | 0.0 | 0.0 | 0.00 | 1.39 | 0.02 | 96 | 1012.3 |
| 20260507072052 | 62 | 0 | 0.0 | 0.0 | 0.00 | 1.39 | 0.02 | 96 | 1012.2 |
| 20260507071553 | 62 | 0 | 0.0 | 0.0 | 0.00 | 1.39 | 0.02 | 96 | 1011.9 |
| 20260507071052 | 62 | 0 | 0.0 | 0.0 | 0.00 | 1.39 | 0.02 | 96 | 1011.8 |
| 20260507070555 | 62 | 0 | 0.0 | 0.0 | 0.00 | 1.39 | 0.02 | 96 | 1012.3 |
| 20260507070105 | 62 | 0 | 0.0 | 0.0 | 0.00 | 1.39 | 0.02 | 96 | 1012.5 |
| 20260507065556 | 62 | 0 | 0.0 | 0.0 | 0.00 | 1.39 | 0.02 | 96 | 1012.5 |
| 20260507065053 | 62 | 0 | 0.0 | 0.0 | 0.00 | 1.39 | 0.02 | 96 | 1012.8 |
| 20260507064625 | 62 | 0 | 0.0 | 0.0 | 0.00 | 1.39 | 0.02 | 96 | 1012.9 |
| 20260507064056 | 62 | 0 | 0.0 | 0.0 | 0.00 | 1.39 | 0.02 | 96 | 1012.8 |
| 20260507063553 | 62 | 0 | 0.0 | 0.0 | 0.00 | 1.39 | 0.02 | 95 | 1012.8 |